Wind_Speed
43 44 45 46 46 47 47 47 47 47 47 47 47 47 46 46 46 45 45 45 44 44 43 43 43 42 41 41 41 40 40 40 40 39 38 37 37 37 37 36 35 35 35
44 45 46 47 48 48 48 49 49 49 49 49 49 49 48 48 47 47 46 46 45 45 45 44 44 44 43 43 42 42 41 41 41 41 40 39 38 38 38 37 37 37 36
44 45 47 48 48 49 49 50 50 50 50 51 51 50 50 50 49 49 48 48 47 47 47 47 46 45 44 44 44 44 43 43 42 42 42 42 41 40 39 39 38 37 36
43 45 47 48 48 49 50 50 51 51 51 52 52 52 51 51 51 50 50 50 50 49 49 49 48 47 47 46 46 45 45 44 44 44 43 43 43 41 40 40 40 40 39
42 43 45 47 48 49 50 51 51 52 52 52 52 53 53 52 52 52 52 51 51 51 51 51 50 50 49 48 48 47 47 46 46 46 45 44 44 44 43 42 41 42 41
42 43 44 45 46 48 50 51 52 52 52 53 53 53 54 53 53 53 54 53 53 52 52 52 51 51 51 50 50 49 49 48 48 47 47 46 46 46 45 44 43 43 42
40 41 43 44 45 46 48 50 51 52 53 53 54 54 54 54 53 53 54 54 54 53 52 52 52 52 51 51 51 51 50 50 49 49 49 48 48 48 47 46 45 44 43
39 40 42 44 45 45 46 48 50 52 52 53 53 54 55 55 55 54 54 54 54 54 54 53 52 52 52 52 52 52 51 51 51 50 50 49 49 49 48 47 46 45 44
39 40 42 43 45 44 45 47 49 50 52 53 53 53 54 55 55 54 52 52 53 53 53 53 53 53 53 53 52 52 52 52 51 51 50 50 50 49 49 48 48 47 45
39 40 42 43 44 44 45 46 47 49 50 51 53 53 53 53 54 55 53 51 52 52 53 54 54 54 53 52 52 52 52 52 51 51 51 50 50 49 49 49 48 48 47
40 41 41 42 44 44 44 45 47 48 49 50 51 52 52 52 53 54 54 53 51 51 51 52 53 53 53 53 52 52 51 51 51 51 51 51 51 51 50 50 49 49 48
40 41 41 41 42 43 43 45 46 47 48 48 49 50 51 51 52 52 54 54 53 52 51 50 50 51 52 52 52 52 52 52 52 52 52 52 51 51 51 51 50 50 49
40 41 40 41 41 42 43 44 45 46 47 48 48 49 50 50 51 52 52 52 53 53 51 50 50 49 50 51 51 51 52 53 53 52 52 53 52 52 52 52 51 51 51
41 41 40 41 41 41 42 43 44 45 46 47 48 48 48 48 49 50 51 51 51 51 51 49 49 48 48 49 50 51 51 52 53 53 53 54 53 53 53 53 52 52 51
40 40 40 40 40 41 41 41 43 44 45 46 46 46 47 48 48 48 49 50 50 51 51 50 49 48 48 48 49 50 51 52 53 53 53 53 53 54 54 53 52 51 51
38 39 39 39 40 40 40 40 41 41 42 43 44 44 45 46 47 47 47 47 47 48 48 49 49 48 47 47 48 50 50 51 51 51 52 52 53 53 52 52 52 51 50
38 38 38 38 39 39 39 39 39 39 40 40 41 42 42 44 45 45 45 46 45 46 46 47 48 48 48 47 48 48 48 48 48 48 49 50 51 51 50 50 51 51 50
37 38 37 37 38 38 39 39 39 39 39 39 40 41 41 42 43 44 45 45 45 46 46 46 47 47 48 48 48 48 47 47 47 48 48 49 49 50 50 49 50 50 50
37 38 37 38 38 39 39 39 39 39 40 40 40 41 41 42 42 43 43 44 44 45 45 45 46 46 46 47 48 48 47 47 47 47 48 48 48 48 49 49 49 49 49
38 38 38 38 38 38 39 39 38 38 38 39 40 40 40 41 42 42 42 42 42 42 43 44 44 44 44 45 46 47 47 47 47 47 47 47 48 49 49 49 48 48 48
37 37 37 38 38 37 37 37 37 36 37 37 38 38 39 39 39 40 40 41 41 41 41 42 43 43 43 43 44 45 45 45 46 46 46 46 47 47 47 47 47 47 47
36 36 37 37 38 37 36 35 35 35 35 35 35 36 36 37 38 37 38 39 39 39 39 40 40 41 41 41 42 42 43 43 43 44 44 45 45 45 45 45 45 45 45
36 36 36 36 37 37 36 34 34 33 33 32 33 33 34 34 35 35 35 36 37 38 38 38 38 39 40 40 40 41 41 42 42 42 42 43 43 44 44 44 44 44 44
36 36 36 36 35 34 34 34 33 32 32 31 31 31 32 33 33 34 34 35 36 36 37 37 36 37 38 38 39 39 40 41 41 42 42 42 42 43 43 43 43 43 43
36 36 36 34 33 33 32 32 31 31 31 31 31 31 31 31 31 32 33 33 34 34 35 35 36 35 36 37 38 38 39 39 40 40 41 41 42 42 41 41 42 42 42
34 34 34 33 32 31 31 31 30 30 31 31 31 31 31 31 31 31 31 31 32 33 33 34 34 34 35 36 37 37 38 38 38 39 39 39 39 40 40 40 40 41 41
Wind_Direction
263 260 258 257 256 256 256 255 255 255 255 256 256 255 255 255 255 255 254 254 254 254 254 254 253 253 253 252 252 252 251 251 251 251 251 250 251 252 252 253 254 255 255
264 261 259 257 257 256 255 255 254 254 254 255 255 254 254 254 254 255 254 253 253 254 254 254 253 253 252 252 252 252 251 251 251 251 251 250 250 251 252 253 254 255 255
266 263 260 258 257 256 255 254 254 254 254 254 254 254 253 253 253 254 254 253 253 253 254 254 254 253 252 252 252 252 252 251 251 251 251 250 251 252 251 253 253 253 255
268 266 262 258 257 257 256 255 254 254 254 253 253 254 253 253 253 253 253 253 253 253 253 253 253 253 252 251 251 251 251 251 251 250 250 251 251 251 251 253 253 254 256
270 267 264 260 258 257 256 255 255 255 254 254 254 254 254 254 254 253 253 253 253 253 253 253 253 253 252 252 251 251 250 251 251 250 250 251 251 251 252 252 254 255 256
272 268 265 261 259 258 257 256 255 255 255 255 255 255 255 255 254 254 254 254 254 253 253 253 253 252 252 252 251 251 250 251 251 251 249 250 250 251 252 253 253 254 255
274 270 266 262 261 260 258 257 255 255 255 255 255 255 255 255 255 254 254 255 255 253 252 252 252 252 251 251 251 250 250 250 250 251 249 250 250 250 252 253 253 253 254
275 272 269 263 262 262 260 259 257 256 255 255 256 256 255 255 256 255 254 255 254 253 253 252 251 251 251 250 250 249 250 250 250 250 249 249 250 250 251 252 253 253 253
277 274 271 266 264 263 262 261 260 258 257 256 256 256 255 256 256 256 256 255 254 253 253 252 251 251 251 250 250 250 250 250 249 248 248 249 250 250 251 252 252 252 252
278 275 273 269 266 265 265 264 262 260 259 258 257 255 255 255 255 255 256 256 254 253 253 252 252 251 251 250 250 250 250 250 249 248 249 249 249 249 249 250 250 251 252
279 276 275 271 269 268 268 266 264 263 260 258 257 256 255 255 255 255 255 255 255 253 252 252 250 250 250 249 249 249 250 248 248 248 248 248 248 249 249 250 250 251 252
281 279 276 273 272 270 270 268 267 265 262 259 258 257 256 256 256 256 255 255 253 252 251 251 250 250 249 249 248 248 248 248 248 248 249 249 248 249 249 250 250 251 252
284 281 278 274 273 272 271 269 268 266 263 261 259 258 257 257 256 255 255 254 253 252 252 251 251 251 249 247 247 247 248 249 248 248 248 248 248 249 249 250 250 251 253
286 283 280 276 274 274 273 271 270 267 265 263 260 258 258 257 255 255 255 254 253 253 252 252 251 251 250 249 249 248 248 248 248 248 247 248 248 249 249 250 251 252 253
287 286 283 279 277 275 275 273 271 269 267 264 261 259 258 257 256 255 255 254 253 253 252 252 252 251 251 250 250 249 249 249 249 248 247 248 248 249 249 250 250 252 253
288 288 285 281 279 278 277 276 274 271 268 265 263 261 260 258 257 256 255 255 253 253 252 252 251 250 250 251 252 250 250 250 250 249 248 248 248 249 250 250 250 251 252
288 288 287 284 280 278 277 276 275 272 269 266 264 263 262 260 258 257 256 255 254 253 252 252 251 250 250 251 251 251 250 250 250 248 247 248 248 248 249 250 250 251 252
289 289 287 286 283 281 278 278 276 274 270 268 265 263 262 262 261 259 257 256 254 253 253 253 251 251 250 251 250 250 250 250 249 248 248 248 248 248 248 250 251 252 253
290 289 288 287 285 283 280 279 278 275 271 269 267 265 264 263 262 260 258 257 255 253 253 252 251 251 250 250 249 249 248 248 248 249 249 248 248 248 249 250 251 252 253
291 290 290 288 287 285 283 281 280 277 273 270 268 266 265 264 262 260 258 257 255 254 253 252 251 250 250 249 248 248 248 248 248 249 249 249 249 249 249 250 251 252 253
293 291 291 290 287 286 285 283 281 278 275 272 270 268 266 264 263 260 257 256 254 253 252 252 251 250 250 249 248 247 247 248 248 248 248 249 250 250 250 251 252 253 253
296 294 292 291 289 287 286 285 282 279 276 273 270 268 266 264 263 260 257 255 253 252 252 251 250 250 249 248 247 246 246 246 247 248 248 249 249 249 249 251 252 252 253
296 295 294 293 291 289 287 286 283 280 277 273 271 269 267 264 262 259 256 253 252 250 249 250 249 248 248 247 246 245 245 245 245 246 246 247 248 247 248 249 250 251 251
296 296 296 295 293 291 289 287 284 280 277 274 271 270 267 265 261 258 255 253 251 249 248 247 247 246 246 245 245 244 245 245 245 245 245 246 247 247 248 250 251 250 251
297 297 297 296 295 293 291 288 284 281 277 274 272 271 270 266 261 258 254 252 250 249 248 246 246 246 245 244 244 244 244 244 244 244 245 246 247 248 249 250 251 251 251
298 298 298 297 296 295 293 290 286 282 279 274 271 270 267 265 262 258 254 251 249 248 247 245 245 245 245 244 244 243 243 243 244 245 245 245 246 248 248 249 250 251 251
Height
5692 5694 5696 5698 5700 5702 5704 5707 5709 5710 5712 5714 5716 5717 5719 5721 5722 5724 5726 5728 5730 5731 5733 5735 5737 5739 5742 5744 5746 5749 5751 5753 5756 5760 5762 5765 5767 5770 5773 5775 5777 5779 5781
5680 5681 5683 5685 5687 5689 5691 5693 5695 5698 5700 5702 5703 5705 5706 5709 5711 5712 5714 5716 5718 5720 5722 5724 5726 5729 5731 5733 5736 5738 5741 5744 5746 5749 5752 5755 5759 5761 5764 5766 5768 5771 5773
5667 5668 5669 5671 5673 5675 5678 5680 5682 5684 5686 5688 5690 5692 5693 5696 5698 5700 5702 5704 5706 5708 5711 5713 5715 5717 5720 5723 5725 5728 5731 5734 5736 5739 5742 5745 5749 5751 5754 5757 5759 5761 5764
5655 5655 5656 5657 5659 5661 5664 5666 5668 5670 5672 5674 5676 5678 5680 5683 5685 5687 5689 5691 5694 5696 5698 5700 5703 5705 5708 5711 5714 5716 5719 5722 5725 5728 5731 5735 5738 5742 5745 5748 5750 5752 5754
5643 5643 5643 5644 5646 5648 5650 5652 5654 5656 5658 5660 5662 5664 5666 5669 5671 5673 5676 5678 5680 5683 5685 5687 5690 5693 5696 5699 5702 5704 5707 5711 5714 5717 5720 5723 5727 5730 5734 5738 5740 5742 5744
5632 5631 5631 5632 5633 5634 5636 5638 5640 5642 5644 5646 5648 5650 5653 5655 5657 5659 5662 5664 5667 5669 5671 5673 5676 5679 5682 5686 5689 5692 5695 5698 5702 5705 5708 5712 5715 5719 5722 5726 5729 5732 5734
5621 5620 5619 5620 5620 5621 5622 5624 5626 5628 5630 5632 5634 5636 5638 5641 5642 5645 5647 5649 5652 5654 5657 5659 5662 5665 5668 5672 5675 5678 5682 5685 5689 5692 5696 5700 5704 5707 5711 5715 5718 5721 5724
5610 5608 5607 5607 5608 5608 5609 5611 5612 5614 5616 5618 5620 5622 5624 5626 5628 5630 5632 5635 5637 5640 5642 5645 5648 5651 5654 5658 5661 5665 5668 5672 5675 5679 5683 5687 5691 5695 5699 5703 5706 5709 5713
5599 5597 5596 5596 5595 5596 5596 5598 5599 5600 5602 5604 5605 5607 5609 5611 5613 5615 5617 5620 5622 5625 5627 5630 5633 5636 5639 5643 5647 5651 5655 5658 5662 5666 5669 5674 5678 5682 5686 5690 5694 5697 5701
5588 5586 5585 5584 5583 5583 5584 5584 5585 5586 5587 5589 5591 5592 5594 5596 5598 5600 5603 5605 5607 5610 5613 5616 5619 5622 5625 5629 5633 5637 5641 5645 5648 5652 5656 5661 5665 5669 5673 5677 5681 5684 5688
5577 5575 5574 5573 5571 5571 5571 5571 5572 5572 5573 5575 5576 5578 5580 5582 5583 5586 5588 5590 5593 5595 5598 5601 5604 5607 5611 5615 5619 5623 5627 5631 5635 5639 5643 5647 5652 5656 5660 5664 5668 5672 5675
5566 5564 5563 5561 5560 5559 5559 5558 5558 5559 5560 5561 5562 5564 5566 5568 5570 5571 5573 5575 5578 5580 5583 5586 5590 5593 5597 5601 5605 5609 5613 5618 5622 5626 5630 5634 5638 5642 5647 5651 5655 5659 5662
5556 5553 5551 5550 5549 5548 5547 5546 5546 5545 5546 5547 5549 5550 5552 5554 5556 5558 5559 5561 5564 5566 5569 5572 5576 5579 5583 5587 5591 5595 5599 5603 5608 5612 5616 5620 5624 5629 5633 5637 5641 5645 5649
5545 5542 5540 5539 5537 5536 5535 5534 5533 5533 5533 5534 5535 5537 5538 5540 5542 5544 5546 5548 5551 5553 5556 5559 5563 5566 5570 5573 5577 5581 5585 5589 5593 5598 5602 5606 5611 5615 5619 5624 5628 5632 5636
5534 5532 5530 5528 5526 5525 5523 5522 5521 5520 5520 5521 5522 5524 5525 5527 5528 5530 5532 5535 5537 5540 5543 5546 5549 5553 5556 5560 5563 5567 5571 5575 5579 5583 5588 5592 5597 5601 5606 5610 5614 5618 5622
5524 5521 5519 5517 5515 5513 5512 5511 5510 5509 5508 5509 5510 5511 5512 5513 5515 5517 5519 5522 5524 5527 5530 5533 5536 5540 5543 5546 5549 5553 5557 5561 5565 5569 5574 5578 5583 5587 5592 5596 5600 5604 5608
5514 5511 5508 5506 5504 5502 5501 5500 5498 5497 5497 5497 5498 5498 5500 5501 5502 5504 5506 5509 5511 5514 5517 5520 5523 5527 5530 5533 5536 5540 5544 5548 5552 5556 5560 5564 5569 5573 5578 5582 5586 5590 5594
5504 5501 5498 5496 5494 5492 5490 5488 5487 5486 5485 5485 5486 5486 5487 5488 5490 5491 5493 5496 5498 5501 5505 5507 5511 5514 5517 5520 5523 5527 5531 5535 5539 5543 5547 5552 5556 5560 5564 5568 5573 5577 5581
5494 5491 5488 5485 5483 5481 5479 5477 5476 5475 5474 5474 5474 5474 5475 5476 5477 5479 5480 5483 5486 5489 5492 5495 5498 5501 5504 5507 5511 5514 5518 5522 5527 5531 5535 5539 5543 5548 5552 5556 5560 5564 5568
5484 5481 5477 5474 5472 5470 5468 5466 5464 5463 5462 5462 5462 5462 5463 5464 5465 5466 5468 5470 5473 5476 5479 5482 5485 5489 5492 5495 5498 5502 5506 5511 5515 5519 5523 5527 5531 5534 5538 5543 5547 5551 5554
5474 5471 5467 5464 5462 5459 5457 5455 5453 5452 5450 5450 5450 5450 5450 5451 5452 5454 5455 5458 5461 5464 5467 5470 5474 5477 5480 5483 5486 5490 5494 5498 5502 5506 5510 5514 5518 5522 5526 5530 5534 5538 5541
5465 5461 5457 5454 5451 5448 5445 5444 5442 5440 5439 5438 5438 5438 5438 5439 5440 5442 5444 5446 5449 5452 5455 5458 5461 5465 5468 5471 5474 5478 5482 5486 5490 5495 5498 5502 5506 5510 5513 5517 5521 5525 5528
5455 5451 5448 5444 5441 5437 5435 5433 5431 5430 5428 5427 5427 5427 5427 5428 5428 5430 5432 5434 5437 5440 5443 5446 5450 5453 5457 5460 5463 5467 5471 5474 5479 5483 5486 5490 5494 5497 5501 5505 5509 5512 5516
5446 5442 5438 5434 5431 5427 5424 5422 5421 5419 5418 5417 5417 5416 5417 5417 5418 5419 5421 5423 5426 5429 5432 5435 5439 5442 5445 5449 5452 5456 5460 5463 5467 5471 5475 5479 5482 5486 5490 5494 5497 5500 5504
5436 5432 5428 5425 5421 5418 5415 5412 5411 5409 5408 5407 5407 5406 5406 5407 5407 5408 5410 5413 5416 5418 5422 5425 5428 5431 5435 5438 5442 5445 5449 5453 5457 5460 5464 5468 5472 5475 5479 5482 5485 5488 5491
5427 5423 5419 5416 5412 5409 5406 5404 5401 5399 5398 5397 5396 5396 5396 5396 5397 5399 5400 5402 5406 5408 5411 5414 5418 5421 5424 5427 5431 5435 5439 5442 5446 5450 5453 5457 5461 5464 5467 5471 5474 5476 5479